Powrót do katalogu

BEIJING 3B

AktywnyNaukaSSO
NORAD 53587·PAYLOAD·🇨🇳 China

Wystrzelony Aug 24, 2022 z Taiyuan Satellite Launch Center

Loading…

Następne Przeloty (najbliższe 24 godziny)

TLE

ŚwieżeSource: Space-Track

Epoka: Sep 14, 2026, 15:24 UTC

1 53587U 22103A   26257.64192664  .00000851  00000-0  10042-3 0  9990
2 53587  97.7950 333.4541 0026487 115.6465 244.7492 14.87038488220383

Śledź BEIJING 3B w czasie rzeczywistym z AllMySat

Download on the App Store